Temperature
5 6 6 6 6 6 5 5 5 5 6 8 9 9 8 7 6 5 5 5 5 5 6 6 6 7 7 7 8 8 8 8 8 7 7 7 6 5 5 4 3 3 3 2
6 6 6 6 6 6 6 6 6 7 7 9 9 8 7 5 4 3 3 3 4 4 5 5 5 5 6 6 6 6 6 6 6 5 5 4 4 3 3 2 2 2 2 2
5 6 6 6 7 7 7 7 7 7 8 9 8 7 5 3 2 2 2 2 3 3 4 4 4 4 4 4 4 4 4 3 3 3 2 2 1 1 1 1 1 1 1 1
6 6 6 8 9 9 8 8 8 8 9 9 8 6 3 2 1 1 1 2 2 2 3 3 3 3 3 2 2 2 1 1 1 1 0 0 0 0 0 1 1 1 1 1
6 6 6 8 9 9 8 8 8 8 8 8 7 5 3 2 1 0 0 1 1 1 2 2 1 2 2 1 1 0 -0 -0 -1 -0 -0 -1 -0 -0 0 0 0 0 0 -0
6 6 6 9 10 10 8 8 8 8 7 7 6 6 4 1 1 0 -0 -0 0 0 0 0 0 0 0 -0 -0 -1 -1 -1 -1 -1 -1 -1 -0 -0 -0 -0 -0 -0 -1 -1
6 6 6 8 9 9 8 9 9 8 7 6 5 4 2 1 0 -0 -1 -1 -1 -1 -1 -1 -1 -1 -1 -1 -1 -1 -1 -1 -1 -1 -1 -0 -0 -0 -0 -1 -1 -1 -1 -2
6 6 7 9 9 9 9 9 8 7 6 5 4 2 1 1 -0 -1 -1 -1 -1 -1 -1 -1 -1 -1 -1 -1 -1 -1 -1 -1 -1 -1 -1 -1 -1 -1 -1 -1 -1 -2 -2 -2
7 8 9 9 10 10 9 8 7 6 5 5 3 2 1 1 -0 -1 -1 -1 -2 -1 -2 -2 -1 -1 -1 -1 -1 -1 -1 -1 -1 -1 -1 -1 -1 -1 -1 -2 -2 -2 -3 -3
7 7 8 9 9 9 8 7 7 6 5 4 3 2 1 1 -0 -0 -1 -1 -1 -1 -1 -1 -1 -1 -0 -1 -1 -1 -1 -1 -1 -1 -1 -2 -2 -2 -2 -2 -2 -3 -3 -4
7 8 8 8 9 9 8 7 6 5 5 4 4 2 1 1 0 0 -0 -0 -0 -0 -0 -0 -0 -0 -0 -0 -0 -0 -1 -1 -1 -1 -1 -1 -2 -2 -2 -3 -3 -4 -4 -5
8 8 8 9 9 8 7 6 6 5 4 3 3 3 2 1 1 0 0 0 0 0 0 0 -0 -0 -0 -0 -0 -0 -1 -1 -1 -1 -2 -2 -2 -3 -3 -4 -4 -5 -6 -7
9 9 9 9 8 7 6 6 5 4 4 3 2 2 2 1 1 1 1 1 1 1 1 0 0 -0 -0 -1 -1 -1 -1 -1 -1 -2 -2 -3 -3 -4 -4 -5 -5 -6 -7 -7
8 8 8 7 7 6 6 5 4 3 3 2 2 2 1 1 1 1 1 1 1 1 1 0 0 -0 -1 -1 -1 -1 -1 -1 -2 -2 -3 -3 -4 -4 -5 -5 -6 -6 -7 -7
7 7 7 7 6 5 5 4 3 3 2 2 1 1 1 1 1 1 1 1 1 1 0 0 -0 -0 -1 -1 -1 -1 -2 -2 -2 -3 -3 -4 -4 -5 -5 -6 -6 -7 -7 -8
5 6 6 6 5 4 4 3 3 2 2 2 1 1 1 1 1 1 1 1 1 1 0 0 -0 -1 -1 -1 -2 -2 -2 -2 -3 -3 -4 -4 -5 -5 -6 -6 -7 -7 -8 -8
3 4 4 4 4 4 4 3 3 3 2 2 2 1 1 1 1 1 0 0 0 0 0 -0 -0 -1 -1 -2 -2 -2 -2 -3 -3 -4 -4 -5 -5 -6 -6 -7 -7 -8 -8 -9
2 3 3 4 4 4 4 3 3 3 3 2 2 1 1 1 1 1 1 0 -0 -0 -0 -1 -1 -1 -1 -2 -2 -2 -3 -3 -4 -4 -5 -5 -6 -6 -7 -7 -8 -8 -9 -9
2 3 3 4 4 4 4 3 3 3 3 2 2 2 1 1 1 1 1 0 -0 -0 -1 -1 -1 -1 -2 -2 -2 -3 -3 -3 -4 -4 -5 -6 -6 -7 -7 -8 -8 -9 -9 -9
2 2 3 3 3 3 4 3 3 3 3 2 2 1 1 1 1 1 0 0 0 0 -0 -1 -1 -2 -2 -2 -3 -3 -3 -4 -4 -5 -6 -6 -7 -7 -8 -8 -9 -9 -9 -9
1 2 2 3 3 3 3 3 3 3 3 2 2 2 2 1 1 1 0 -0 -0 -1 -1 -1 -2 -2 -2 -3 -3 -3 -4 -4 -5 -5 -6 -7 -7 -8 -8 -9 -9 -9 -9 -9
1 1 1 2 2 2 2 2 2 2 2 2 2 2 1 1 1 0 0 0 -0 -1 -1 -2 -2 -2 -2 -3 -3 -4 -4 -5 -5 -6 -6 -7 -7 -8 -8 -9 -9 -9 -9 -9
0 1 1 1 1 1 1 1 1 2 2 2 2 2 2 2 1 1 0 -0 -1 -1 -1 -2 -2 -2 -3 -3 -4 -4 -4 -5 -6 -6 -7 -7 -8 -8 -8 -9 -9 -9 -9 -9
0 0 0 0 1 1 1 1 1 1 1 1 1 1 1 1 1 0 0 -0 -1 -1 -2 -2 -2 -3 -3 -3 -4 -4 -5 -5 -6 -6 -7 -8 -8 -8 -9 -9 -9 -9 -9 -9
-0 0 0 0 -0 -0 -0 0 -0 -0 -0 -0 -0 -0 -0 0 1 1 0 -0 -1 -1 -2 -2 -3 -3 -3 -4 -4 -5 -5 -6 -6 -7 -7 -8 -8 -8 -9 -9 -9 -9 -9 -9
-1 -1 -1 -1 -1 -1 -1 -1 -1 -1 -1 -1 -1 -1 -1 -1 -1 -1 -1 -1 -1 -2 -2 -3 -3 -3 -4 -4 -5 -5 -5 -6 -6 -7 -7 -8 -8 -8 -9 -9 -9 -9 -9 -9
-2 -2 -2 -2 -2 -2 -2 -2 -2 -1 -1 -1 -1 -1 -1 -1 -1 -1 -1 -1 -2 -2 -3 -3 -3 -4 -4 -4 -5 -5 -6 -6 -7 -7 -8 -8 -8 -8 -9 -9 -9 -9 -9 -9
Wind_Speed
6 6 5 7 8 10 13 12 10 11 14 21 18 17 13 11 12 13 12 12 11 8 5 4 4 4 4 5 6 8 10 11 11 12 13 14 14 14 15 15 15 15 14 13
4 6 7 8 12 13 14 15 18 21 23 19 14 9 8 9 11 12 12 11 9 7 5 5 5 6 7 8 9 10 12 12 13 14 15 15 15 16 16 15 14 13 13 11
3 5 4 7 11 13 8 9 10 15 13 12 11 9 6 7 9 10 10 9 8 7 6 6 6 8 9 10 11 12 13 13 14 15 16 15 16 16 15 13 13 12 10 9
3 4 5 6 3 7 9 11 12 11 11 11 9 3 2 4 7 8 9 8 7 7 7 8 9 10 11 12 13 14 14 15 15 16 16 15 15 14 13 11 10 9 7 7
2 4 7 7 4 4 4 7 7 9 10 8 4 1 1 5 5 6 7 7 6 7 8 9 10 11 13 14 14 15 15 15 14 15 15 14 13 12 10 9 8 6 5 5
2 3 5 5 2 2 2 5 5 6 8 6 3 3 2 4 5 6 7 7 7 8 9 10 10 11 14 14 14 14 14 14 13 13 13 12 11 9 7 6 6 5 5 4
5 5 7 7 3 3 2 5 3 4 5 3 2 2 2 4 5 5 6 7 8 9 9 9 9 12 14 14 13 13 13 13 12 11 11 10 8 6 6 6 6 5 6 5
6 6 8 5 3 4 6 4 2 2 2 3 5 6 5 5 5 6 7 8 8 9 9 9 10 12 13 12 11 11 12 12 11 10 8 8 7 6 6 6 7 6 5 5
8 9 6 3 4 3 1 3 3 2 3 6 7 6 6 6 6 6 7 7 8 9 9 9 9 10 12 10 10 11 11 11 9 9 7 6 6 6 5 5 5 4 4 3
5 8 8 6 4 3 2 3 2 3 5 7 7 8 8 7 7 7 7 7 8 9 9 8 8 9 10 9 9 11 11 9 8 8 7 6 5 5 5 4 4 3 3 2
6 7 5 5 4 3 2 2 2 3 4 7 10 9 8 8 8 7 7 7 7 8 9 9 8 9 8 8 9 10 9 8 7 6 6 6 5 4 4 2 3 3 2 1
6 6 4 5 3 4 4 4 4 5 5 7 9 10 9 8 8 8 8 8 8 8 9 9 9 8 7 7 8 10 8 7 5 5 5 5 5 5 7 5 6 5 2 1
4 2 2 1 2 3 4 4 5 6 7 8 8 9 9 8 8 9 9 9 9 9 9 9 9 8 6 7 7 8 8 6 5 5 5 4 4 4 3 5 7 8 8 7
1 1 1 3 3 3 5 6 6 6 7 8 8 9 9 8 9 9 9 9 9 9 9 8 9 7 6 7 8 8 7 7 6 5 4 4 3 3 2 2 2 3 5 8
5 3 3 2 5 5 6 7 8 7 7 8 8 9 10 10 10 9 9 10 10 10 9 9 9 7 6 8 8 8 7 5 5 4 4 4 3 3 2 2 2 2 3 5
6 3 1 4 5 6 7 8 8 8 8 8 9 9 9 10 10 9 9 9 10 10 8 8 8 6 6 8 8 6 5 9 7 4 4 3 3 2 2 2 2 3 4 4
4 3 2 3 6 7 8 8 8 9 9 9 10 10 11 12 11 10 8 7 7 7 7 8 7 7 7 7 7 5 5 5 7 5 3 2 2 1 1 2 2 3 4 6
7 7 7 7 7 8 9 8 9 10 10 9 11 12 13 13 13 11 10 9 9 7 6 6 7 7 7 7 6 5 5 4 3 3 2 1 1 1 1 2 3 4 4 5
7 6 6 6 7 8 8 9 10 10 10 12 13 12 10 10 11 11 11 11 11 9 6 7 11 8 7 7 7 5 5 4 3 2 2 2 2 2 2 3 3 4 5 5
7 6 4 2 3 5 7 8 10 10 11 12 12 11 11 10 11 12 11 8 6 5 8 9 8 7 6 7 7 4 4 4 3 2 1 1 1 2 3 3 4 4 5 5
8 6 4 1 1 3 6 9 11 11 12 12 13 13 12 11 11 11 10 7 5 7 9 12 7 6 5 6 7 4 4 3 2 1 0 1 2 3 3 4 4 5 5 6
7 5 4 2 2 3 4 7 9 11 11 11 10 11 12 12 11 8 6 6 8 13 9 6 6 8 9 8 4 4 3 3 2 1 1 1 2 3 4 4 5 5 5 6
6 5 4 2 1 2 3 5 7 10 11 11 12 13 13 11 10 10 8 6 8 13 9 6 9 12 11 6 4 4 3 2 1 1 1 2 3 4 4 5 5 5 6 6
6 5 4 2 1 2 3 3 5 6 7 8 8 10 10 9 7 4 4 13 16 14 8 10 14 12 10 5 4 3 3 2 2 2 3 3 3 4 4 5 5 6 6 7
5 4 3 2 1 2 2 3 4 5 7 6 7 8 7 6 6 7 8 11 16 14 7 11 14 12 7 4 4 3 2 3 3 3 3 3 4 4 5 5 5 6 6 7
5 4 4 3 3 2 3 4 4 5 6 7 6 6 6 5 7 8 8 9 11 13 8 6 7 8 5 4 3 3 2 2 2 2 3 4 5 5 5 6 7 6 7 7
5 4 3 3 2 2 3 4 5 6 7 8 8 7 8 8 8 9 9 9 8 8 7 6 5 5 4 4 3 3 2 2 3 3 4 4 5 5 6 7 6 6 7 7
Wind_Direction
238 237 214 217 216 204 209 217 233 254 265 281 292 302 309 319 324 323 325 327 327 326 327 347 11 30 60 77 86 100 106 109 111 113 114 115 115 116 115 113 112 110 108 105
283 257 233 242 237 225 229 233 243 261 275 278 288 302 320 333 333 331 332 334 342 356 10 26 44 61 69 76 84 94 99 103 107 109 109 108 108 107 105 103 104 104 105 107
281 310 328 263 233 214 213 218 223 249 261 285 301 315 329 334 334 336 340 349 5 14 29 47 63 76 80 80 85 91 95 98 100 103 102 102 103 102 101 102 101 101 103 109
287 327 253 249 240 191 215 241 233 247 269 288 299 313 58 3 343 348 355 5 19 33 48 57 68 77 82 85 89 91 92 93 96 98 99 99 99 99 99 100 101 105 113 118
251 278 280 283 246 199 221 270 236 241 267 289 320 230 137 26 13 12 13 23 37 51 67 72 76 86 90 89 91 92 94 95 96 98 100 100 99 99 100 104 107 111 115 126
229 265 260 258 251 158 146 273 244 234 267 291 316 294 314 39 32 36 36 39 50 61 70 75 80 90 93 93 92 93 95 96 95 97 100 101 101 102 103 109 114 115 107 108
225 249 268 258 247 133 238 267 261 238 256 260 223 207 109 84 64 59 57 57 63 69 71 73 83 92 94 95 95 97 98 97 95 96 100 103 102 104 110 108 102 95 88 70
196 220 253 253 183 204 242 277 275 252 224 168 139 121 116 105 94 88 81 75 78 80 76 74 85 96 97 96 99 101 100 99 99 100 103 106 104 99 97 100 94 88 84 67
203 222 242 238 229 249 263 268 262 217 173 147 143 141 131 121 112 110 104 97 94 94 90 85 90 101 105 105 107 106 103 101 101 96 92 96 101 100 91 88 92 87 84 71
245 258 259 254 242 241 235 243 246 191 165 155 148 144 139 132 124 122 119 115 112 109 106 101 100 103 108 114 114 110 106 102 99 97 91 84 86 91 94 94 95 93 89 73
252 270 287 263 226 211 188 156 135 133 149 152 146 147 145 139 133 130 125 122 120 118 115 112 110 108 111 115 116 111 106 101 96 93 96 87 78 81 94 102 135 137 161 192
237 242 231 252 213 178 179 184 163 143 133 141 149 148 144 139 135 132 128 125 121 118 117 115 113 109 107 110 116 117 110 101 96 95 91 89 85 65 64 73 70 72 76 21
256 282 246 233 160 165 170 163 153 150 150 145 143 143 141 136 134 132 131 131 129 126 122 119 114 107 104 106 108 110 115 112 104 100 98 96 94 92 66 36 45 42 27 12
338 42 244 220 205 160 141 129 122 120 129 136 136 137 135 131 133 134 135 133 127 122 118 116 112 105 104 107 108 107 107 113 111 105 105 103 100 94 84 60 19 353 359 1
339 318 255 172 134 131 130 130 131 136 136 132 136 140 142 142 141 136 131 129 124 120 119 118 115 111 109 112 113 113 112 112 109 107 102 98 95 89 75 57 25 343 330 340
327 342 119 157 169 164 158 159 160 162 155 148 147 146 141 135 131 128 130 136 138 136 134 128 125 127 120 117 115 112 117 125 120 110 101 94 88 80 59 28 2 344 331 321
305 283 239 221 206 197 191 184 176 169 162 158 153 144 137 134 132 130 126 120 123 125 129 132 131 127 123 123 121 119 113 120 119 107 101 102 93 67 26 356 336 326 315 319
273 263 248 233 218 207 197 184 174 169 165 158 149 148 150 153 152 147 138 128 119 111 114 126 130 126 123 125 124 123 121 118 117 115 105 99 91 43 2 339 328 322 315 321
306 289 269 240 215 199 189 179 171 164 157 156 158 160 157 153 150 148 145 145 147 148 158 155 144 132 130 138 131 121 122 118 111 100 80 58 53 8 345 329 320 314 314 319
333 330 321 278 190 176 173 165 159 159 161 161 158 155 154 155 154 154 154 158 169 161 154 150 140 135 134 140 133 122 123 124 122 114 86 32 348 330 326 323 319 313 313 313
341 344 352 26 116 147 160 160 162 165 166 167 169 169 164 160 160 159 159 163 168 151 154 154 147 145 143 143 133 125 126 129 132 136 129 317 315 314 315 316 316 314 311 311
344 348 359 31 99 127 149 158 162 164 167 169 166 160 159 163 165 166 170 167 163 164 156 152 152 159 157 143 130 135 139 144 150 167 247 290 298 301 302 303 301 301 301 300
344 347 354 5 99 147 147 160 167 172 174 174 172 173 174 173 173 172 176 167 161 167 159 162 169 164 155 143 142 146 153 165 184 223 261 274 279 283 287 292 292 294 295 297
342 345 343 350 60 143 167 176 171 169 166 166 171 171 168 166 172 177 148 165 171 167 164 172 170 165 157 147 151 158 171 191 220 253 268 275 278 280 282 286 289 291 290 292
332 331 331 331 279 221 194 161 147 152 155 160 161 162 164 166 167 165 157 164 170 163 163 173 170 165 155 155 164 174 190 217 233 245 254 271 277 280 281 281 282 287 289 289
320 315 301 283 267 233 195 178 178 176 169 167 168 164 156 144 142 151 156 160 163 164 161 155 156 159 158 166 174 187 205 245 287 287 272 275 277 279 280 282 285 284 285 285
313 308 304 303 281 225 204 197 193 190 185 180 174 171 164 158 157 159 158 159 158 158 156 153 152 157 165 172 183 197 214 236 255 266 271 271 273 274 277 280 281 283 285 285
Height
1478 1476 1476 1477 1477 1478 1481 1481 1482 1470 1462 1449 1445 1442 1439 1436 1432 1428 1423 1419 1414 1411 1409 1407 1406 1405 1405 1405 1405 1406 1407 1409 1411 1415 1418 1422 1425 1429 1434 1438 1444 1449 1454 1460
1475 1471 1473 1473 1470 1471 1471 1470 1468 1462 1455 1444 1442 1439 1437 1434 1431 1427 1422 1418 1414 1411 1409 1407 1406 1405 1405 1405 1405 1407 1408 1410 1412 1415 1418 1422 1425 1429 1434 1440 1446 1451 1456 1460
1478 1472 1470 1470 1458 1460 1461 1457 1457 1455 1448 1440 1439 1437 1435 1433 1430 1427 1423 1418 1415 1412 1410 1408 1408 1407 1407 1407 1408 1409 1410 1412 1415 1417 1420 1424 1428 1433 1438 1443 1449 1454 1458 1461
1475 1474 1474 1457 1447 1448 1450 1448 1447 1444 1441 1438 1437 1435 1434 1432 1430 1426 1423 1420 1417 1414 1412 1411 1410 1410 1410 1411 1411 1413 1414 1416 1419 1421 1425 1429 1434 1438 1443 1448 1452 1455 1458 1461
1473 1471 1467 1453 1446 1445 1447 1445 1440 1440 1438 1436 1435 1434 1433 1431 1429 1426 1424 1421 1419 1417 1415 1414 1414 1414 1414 1415 1416 1417 1419 1421 1424 1427 1430 1435 1439 1443 1447 1451 1454 1457 1459 1461
1471 1469 1465 1449 1443 1442 1446 1444 1437 1437 1435 1434 1434 1433 1433 1431 1428 1426 1424 1423 1421 1419 1419 1418 1418 1418 1418 1419 1420 1422 1424 1426 1430 1433 1436 1440 1444 1447 1450 1453 1456 1458 1459 1460
1468 1467 1458 1445 1441 1444 1447 1442 1435 1434 1433 1432 1432 1433 1433 1430 1429 1427 1426 1425 1423 1423 1422 1422 1422 1422 1422 1423 1425 1427 1429 1432 1435 1439 1442 1445 1448 1451 1454 1456 1457 1458 1459 1459
1462 1462 1457 1439 1440 1442 1439 1434 1432 1431 1431 1430 1430 1430 1430 1430 1429 1428 1428 1427 1426 1426 1425 1426 1426 1427 1427 1428 1431 1433 1435 1438 1441 1444 1447 1449 1452 1454 1456 1457 1458 1459 1459 1459
1452 1449 1439 1437 1437 1435 1434 1432 1430 1429 1428 1428 1428 1429 1430 1430 1430 1430 1430 1430 1430 1429 1429 1430 1431 1432 1432 1434 1436 1439 1441 1444 1446 1448 1451 1453 1455 1457 1457 1458 1458 1458 1458 1457
1445 1439 1436 1434 1433 1432 1431 1430 1428 1427 1427 1427 1427 1428 1430 1430 1431 1432 1432 1432 1433 1433 1433 1435 1436 1438 1439 1440 1443 1444 1446 1448 1450 1453 1454 1456 1457 1458 1458 1458 1458 1457 1456 1454
1440 1436 1433 1431 1430 1430 1429 1428 1426 1426 1426 1426 1427 1428 1429 1431 1432 1433 1434 1435 1436 1437 1438 1439 1441 1442 1444 1446 1448 1449 1451 1453 1454 1456 1457 1458 1459 1459 1458 1457 1457 1455 1454 1452
1436 1432 1432 1429 1428 1428 1427 1426 1425 1425 1425 1426 1427 1428 1429 1431 1433 1434 1436 1437 1439 1440 1442 1443 1445 1447 1449 1451 1452 1454 1455 1456 1457 1458 1459 1459 1459 1458 1457 1456 1455 1453 1451 1450
1431 1429 1429 1427 1426 1426 1425 1425 1424 1424 1425 1425 1427 1428 1430 1432 1434 1436 1438 1440 1442 1444 1445 1447 1449 1451 1452 1454 1456 1457 1458 1458 1459 1459 1459 1459 1458 1457 1456 1455 1453 1451 1449 1447
1429 1428 1426 1425 1425 1424 1424 1423 1423 1424 1425 1426 1427 1429 1431 1433 1435 1437 1440 1442 1444 1446 1448 1450 1452 1454 1455 1457 1458 1459 1460 1460 1460 1460 1459 1458 1458 1456 1455 1453 1452 1449 1447 1445
1427 1426 1425 1423 1423 1422 1422 1422 1423 1423 1424 1425 1427 1429 1431 1433 1435 1438 1441 1443 1446 1448 1450 1452 1454 1456 1457 1459 1460 1460 1461 1460 1460 1459 1459 1458 1456 1455 1453 1451 1449 1447 1445 1443
1425 1423 1422 1421 1420 1420 1421 1421 1421 1422 1424 1425 1427 1429 1432 1434 1437 1439 1442 1445 1447 1449 1452 1454 1456 1457 1458 1460 1460 1461 1461 1460 1460 1459 1458 1457 1455 1453 1451 1449 1447 1445 1443 1440
1423 1421 1420 1419 1419 1419 1419 1420 1420 1421 1423 1424 1427 1429 1432 1434 1437 1440 1443 1446 1449 1452 1454 1456 1457 1458 1459 1460 1461 1461 1460 1460 1459 1458 1457 1455 1454 1452 1450 1448 1445 1443 1441 1438
1420 1419 1418 1417 1416 1416 1417 1418 1419 1420 1422 1424 1427 1429 1431 1434 1436 1439 1443 1446 1450 1452 1454 1456 1458 1459 1459 1460 1460 1460 1460 1459 1458 1457 1455 1454 1452 1450 1448 1446 1443 1441 1438 1436
1416 1414 1414 1413 1413 1414 1414 1415 1417 1419 1421 1424 1426 1428 1431 1435 1438 1440 1444 1447 1449 1451 1454 1456 1457 1458 1459 1459 1459 1459 1459 1458 1457 1455 1454 1452 1450 1448 1446 1444 1441 1439 1436 1434
1413 1412 1411 1410 1410 1411 1412 1414 1415 1418 1420 1423 1426 1428 1431 1434 1438 1441 1444 1447 1449 1452 1454 1455 1456 1458 1458 1458 1458 1458 1457 1456 1455 1454 1452 1450 1448 1446 1444 1441 1439 1437 1434 1432
1412 1411 1410 1409 1409 1409 1411 1412 1414 1416 1419 1422 1424 1427 1430 1434 1437 1440 1443 1446 1449 1451 1453 1454 1456 1457 1457 1457 1457 1457 1456 1455 1453 1452 1450 1448 1446 1444 1441 1439 1437 1434 1432 1429
1412 1410 1409 1409 1409 1409 1410 1412 1413 1416 1418 1420 1423 1427 1430 1433 1436 1440 1443 1446 1448 1450 1452 1453 1454 1455 1456 1456 1455 1455 1454 1453 1451 1449 1447 1445 1443 1441 1439 1437 1434 1432 1429 1427
1412 1411 1410 1409 1409 1409 1410 1411 1412 1414 1416 1419 1421 1425 1428 1431 1434 1437 1440 1444 1446 1448 1450 1452 1453 1454 1454 1454 1453 1453 1452 1450 1449 1447 1445 1443 1441 1439 1436 1434 1431 1429 1427 1424
1412 1411 1410 1409 1409 1409 1409 1410 1411 1413 1415 1418 1421 1424 1427 1430 1433 1437 1440 1442 1445 1447 1448 1450 1451 1452 1452 1452 1451 1450 1449 1448 1446 1444 1442 1440 1438 1436 1433 1431 1429 1426 1424 1421
1412 1410 1409 1408 1408 1407 1408 1408 1409 1411 1413 1415 1418 1421 1425 1428 1431 1434 1437 1440 1442 1444 1446 1448 1449 1449 1449 1449 1449 1448 1447 1445 1443 1442 1440 1437 1435 1433 1431 1428 1426 1423 1421 1419
1410 1408 1407 1407 1406 1406 1406 1406 1407 1408 1410 1412 1415 1418 1421 1425 1428 1432 1435 1437 1440 1442 1444 1445 1446 1447 1447 1447 1446 1445 1444 1442 1440 1438 1436 1434 1432 1430 1427 1425 1423 1420 1418 1416
1407 1406 1405 1404 1404 1403 1403 1403 1404 1405 1407 1409 1411 1414 1417 1421 1424 1428 1431 1434 1436 1439 1440 1442 1443 1444 1444 1444 1443 1442 1441 1439 1437 1435 1433 1431 1429 1427 1425 1422 1420 1418 1415 1413